Location: Casilda
(33.0440°S, 61.1680°W)
Time: 05:04:16
(UTC-03:00)

ISS - Pass Details

Date: 09 August 2020
Orbit: 418 x 420 km, 51.6° (Epoch: 11 August)

Event Time Altitude Azimuth Distance (km) Brightness Sun altitude
Exits shadow 06:57:22 - 214° (SW) 1,581 -1.3 -11.1°
Reaches altitude 10° 06:57:31 10° 213° (SSW) 1,523 -1.3 -11.0°
Maximum altitude 07:00:48 43° 140° (SE) 607 -2.7 -10.4°
Drops below altitude 10° 07:04:04 10° 66° (ENE) 1,506 0.6 -9.7°
Sets 07:06:13 0° 59° (ENE) 2,364 1.7 -9.3°
